www.pogodaiklimat.ru

Погода и климат >> Архив погоды >> Индия >> Chandrapur


ПОГОДА в Chandrapur

  • Прогноз погоды в Chandrapur
  • Монитор погоды в Chandrapur
  • Климат города

АРХИВ ПОГОДЫ в Chandrapur

Время (UTC), дата Ветер
(напр.,м/с)
 
Видим.   Явления Облачность Т
(С)
Тd
(С)
f
(%)
Тe
(С)
Тes
(С)
Комфортность P
(гПа)
Po
(гПа)
Тmin
(С)
Tmax
(С)
R
(мм)
R24
(мм)
S
(см)
03 9.12 С 2 4000 м ясно +19.2 +15.5 79 +22 +25 комфорт 1014.5 1015.0 +17.2
06 9.12 С 1 4000 м ясно +29.2 +16.8 47 +33 +46 очень
душно
1014.5 1015.0
09 9.12 С 1 4000 м ясно +30.8 +18.1 47 +35 +44 очень
душно
1009.4 1009.0
12 9.12 СВ 2 4000 м ясно +28.8 +17.4 50 +33 +33 очень
душно
1009.6 1010.0 +31.2
03 10.12 В 2 4000 м ясно +17.4 +16.6 95 +18 +21 1015.5 1016.0 +14.6
06 10.12 ЮВ 1 4000 м ясно +27.8 +12.8 40 +29 +43 жарко 1013.5 1014.0
09 10.12 С 1 4000 м ясно +29.6 +14.9 41 +32 +41 душно 1010.6 1011.0
12 10.12 С 2 4000 м ясно +28.0 +13.6 41 +30 +30 жарко 1010.7 1011.0 +30.6
03 11.12 ЮЗ 2 4000 м ясно +15.2 +11.1 77 +15 +18 1016.1 1016.0 +13.6
06 11.12 СВ 1 4000 м ясно +26.4 +12.2 41 +28 +41 жарко 1014.8 1015.0
09 11.12 СВ 1 4000 м ясно +29.4 +15.0 42 +32 +41 душно 1010.7 1011.0
12 11.12 В 2 4000 м ясно +27.0 +16.7 53 +31 +31 душно 1011.7 1012.0 +31.0
03 12.12 ЮВ 2 4000 м ясно +17.0 +12.3 74 +18 +20 1015.9 1016.0 +14.2
06 12.12 ЮЗ 1 4000 м ясно +26.6 +15.9 52 +30 +43 душно 1013.9 1014.0
09 12.12 ЮВ 1 4000 м ясно +31.8 +16.8 41 +35 +44 очень
душно
1010.4 1010.0
12 12.12 В 2 4000 м ясно +29.0 +17.6 50 +33 +33 очень
душно
1009.7 1010.0 +31.8
03 13.12 Ю 2 4000 м ясно +20.2 +15.5 74 +24 +26 комфорт 1015.8 1016.0 +16.4
06 13.12 Ю 1 4000 м ясно +27.6 +17.8 55 +32 +45 очень
душно
1014.9 1015.0
09 13.12 ЮВ 1 4000 м ясно +30.6 +19.7 52 +37 +45 очень
душно
1010.6 1011.0
12 13.12 ЮВ 2 4000 м ясно +28.6 +20.1 60 +35 +35 очень
душно
1011.9 1012.0 +32.0
03 14.12 ЮВ 2 4000 м ясно +20.0 +15.6 76 +23 +26 комфорт 1016.5 1017.0 +17.6
06 14.12 В 1 4000 м ясно +28.4 +19.5 59 +34 +47 очень
душно
1016.9 1017.0
09 14.12 Ю 1 4000 м ясно +31.0 +20.5 54 +38 +47 очень
душно
1012.5 1013.0
12 14.12 ЮВ 2 4000 м ясно +28.4 +19.5 59 +34 +34 очень
душно
1013.7 1014.0 +32.0
03 15.12 В 2 4000 м ясно +21.4 +15.0 67 +25 +27 комфорт 1016.4 1016.0 +16.8
06 15.12 ЮВ 1 4000 м ясно +27.8 +17.3 53 +32 +45 душно 1015.9 1016.0
09 15.12 ЮВ 1 4000 м ясно +30.2 +18.1 48 +35 +43 очень
душно
1012.4 1012.0
12 15.12 Ю 2 4000 м ясно +28.0 +19.0 58 +33 +33 очень
душно
1013.6 1014.0 +31.0

 

Местоположение метеостанции Chandrapur (Maharashtra, Индия): широта 19.97 долгота 79.30 высота над уровнем моря 193 м.

В архиве по умолчанию представлена погода в Chandrapur за последнюю неделю. Архивные данные за месяц целиком и за предыдущие месяцы, начиная с января 2011 года, Вы можете получить, выбрав интересующий диапазон дат из раскрывающегося списка и нажав кнопку "Ввод!".

Внимание! Время в таблицах - всемирное. Для получения местного времени необходимо прибавить поправку, которая в Chandrapur равна 5.5 ч.

Смотрите также архив погоды в соседних городах и на ближайших метеорологических станциях:

Погода в Adilabad (Telangana, Индия) (88 км)
Погода в Bramhapuri (Maharashtra, Индия) (91 км)
Погода в Wardha (Maharashtra, Индия) (108 км)
Погода в Nagpur (Maharashtra, Индия) (128 км)
Погода в Yeotmal (Maharashtra, Индия) (129 км)
Погода в Ramgundam (Telangana, Индия) (134 км)
Погода в Amravati (Maharashtra, Индия) (191 км)
Погода в Gondia (Maharashtra, Индия) (191 км)
Погода в Nizamabad (Telangana, Индия) (192 км)
Погода в Hanamkonda (Telangana, Индия) (219 км)

Пояснения к столбцам:

Ветер - указаны скорость ветра в м/с - средняя за 10 мин, порывы в срок и между сроками (в фигурных скобках) и направление, откуда дует ветер: С - северный, СВ - северо-восточный, В - восточный, ЮВ - юго-восточный, Ю - южный, ЮЗ - юго-западный, З - западный, СЗ - северо-западный.
Видимость - горизонтальная дальность видимости в метрах или километрах. При видимости от 1 до 10 км при отсутствии осадков обычно наблюдается дымка, при ухудшении видимости до 1 км и менее - туман. В сухую погоду видимость может ухудшаться дымом, пылью или мглою.
Явления - указаны атмосферные явления, наблюдавшиеся в срок или в последний час перед сроком; фигурными скобками обозначены явления, наблюдавшиеся между сроками (за 1-3 часа до срока); квадратными скобками обозначены град или гололедные отложения с указанием их диаметра в мм.
Облачность - указаны через наклонную черту общая и нижняя облачность в баллах и высота нижней границы облаков в метрах; квадратными скобками обозначены формы облаков: Ci - перистые, Cs - перисто-слоистые, Cc - перисто-кучевые, Ac - высококучевые, As - высокослоистые, Sc - слоисто-кучевые, Ns - слоисто-дождевые, Cu - кучевые, Cb - кучево-дождевые. Подробнее классификацию облаков см. в Атласе облаков (PDF).
T - Температура воздуха - температура, измеренная на высоте 2 м над землей.
Td - Температура точки росы - температура, при понижении до которой содержащийся в воздухе водяной пар достигнет насыщения.
f - Относительная влажность воздуха - влажноcть воздуха, измеренная на высоте 2 м над землей.
Te - Эффективная температура - температура, которую ощущает одетый по сезону человек в тени. Характеристика душности погоды. При расчете учитывается влияние влажности воздуха и скорости ветра на теплоощущения человека.
Tes - Эффективная температура на солнце - температура, которую ощущает человек, с поправкой на солнечный нагрев. Характеристика знойности погоды. Зависит от высоты солнца над горизонтом, облачности и скорости ветра. Ночью, в пасмурную погоду, а также при ветре 12 м/с и более поправка равна нулю.
P - Атмосферное давление - приведенное к уровню моря атмосферное давление.
Po - Атмосферное давление - измеренное на уровне метеостанции атмосферное давление.
Tmin - Минимальная температура - минимум температуры воздуха на высоте 2 м над землей.
Tmax - Максимальная температура - максимум температуры воздуха на высоте 2 м над землей.
R - Количество осадков - Количество выпавших осадков за период времени, мм. При наведении курсора мыши на число - период времени, за который выпало указанное количество осадков.
R24 - Количество осадков - Количество выпавших осадков за 24 часа, мм.
S - Снежный покров - Высота снежного покрова, см. При наведении курсора мыши на число - состояние снежного покрова и степень покрытия местности в баллах.